This is the latest recevied weather packets stored in our database for station/object KK4MOR. If no packets are shown the sender has not sent any weather packets the latest 10 day(s).
| Time | Temp. | Humidity | Pressure | Rain* | Wind** | Luminosity | Snow |
|---|---|---|---|---|---|---|---|
| 1777863639 | 11.67° C | 70% | 1015.7 hPa | 0 mm | - | - | - |
| 1777862725 | 12.22° C | 68% | 1015.5 hPa | 0 mm | - | - | - |
| 1777861826 | 12.22° C | 67% | 1015.3 hPa | 0 mm | - | - | - |
| 1777860923 | 11.11° C | 68% | 1015 hPa | 0 mm | - | - | - |
| 1777860022 | 11.11° C | 71% | 1015 hPa | 0 mm | - | - | - |
| 1777859134 | 11.11° C | 69% | 1015 hPa | 0 mm | - | - | - |
| 1777858221 | 11.67° C | 69% | 1015 hPa | 0 mm | - | - | - |
| 1777857321 | 12.22° C | 66% | 1014.7 hPa | 0 mm | - | - | - |
| 1777856422 | 12.78° C | 63% | 1014.8 hPa | 0 mm | - | - | - |
| 1777855519 | 13.89° C | 61% | 1014.9 hPa | 0 mm | - | - | - |
| 1777854627 | 14.44° C | 57% | 1014.9 hPa | 0 mm | - | - | - |
| 1777853717 | 15.56° C | 53% | 1015.1 hPa | 0 mm | - | - | - |
| 1777852818 | 16.67° C | 48% | 1015.2 hPa | 0 mm | - | - | - |
| 1777851930 | 17.22° C | 46% | 1014.9 hPa | 0 mm | - | - | - |
| 1777851015 | 17.22° C | 45% | 1015 hPa | 0 mm | - | - | - |
| 1777850113 | 17.78° C | 46% | 1015.3 hPa | 0 mm | - | - | - |
| 1777849209 | 17.78° C | 42% | 1015.6 hPa | 0 mm | - | - | - |
| 1777848308 | 18.33° C | 42% | 1015.8 hPa | 0 mm | - | - | - |
| 1777847407 | 18.33° C | 43% | 1015.9 hPa | 0 mm | - | - | - |
| 1777846505 | 18.89° C | 41% | 1015.9 hPa | 0 mm | - | - | - |
| 1777845605 | 18.89° C | 44% | 1016 hPa | 0 mm | - | - | - |
| 1777844705 | 18.89° C | 43% | 1016.2 hPa | 0 mm | - | - | - |
| 1777843802 | 18.89° C | 45% | 1016.2 hPa | 0 mm | - | - | - |
| 1777842960 | 18.33° C | 43% | 1016.4 hPa | 0 mm | - | - | - |
| 1777842070 | 18.33° C | 43% | 1016.7 hPa | 0 mm | - | - | - |
* Rain latest hour (hover to see other rain measurements)
** Current wind speed in m/s (hover to see current wind gust speed)